Regional Weather Roundup
Issued by NWS

Home | Current Version | Previous Version | Text Only | Print | Product List | Glossary On
Versions: 1 2 3 4 5 6 7 8 9 10 11 12 13 14 15 16 17 18 19 20 21 22 23 24 25 26 27 28 29 30 31 32 33 34 35 36 37 38 39 40 41 42 43 44 45 46 47 48 49 50
000
ASUS42 KTBW 231610
RWRFL
FLORIDA REGIONAL WEATHER ROUNDUP
NATIONAL WEATHER SERVICE TAMPA BAY RUSKIN FL
1200 PM EDT WED JUL 23 2014

NOTE: "FAIR" INDICATES FEW OR NO CLOUDS BELOW 12,000 FEET WITH NO
SIGNIFICANT WEATHER AND/OR OBSTRUCTIONS TO VISIBILITY.


FLZ001>010-012>015-112-114-115-231700-
PANHANDLE FLORIDA

CITY           SKY/WX    TMP DP  RH WIND       PRES   REMARKS
PENSACOLA      MOSUNNY   83  72  69 E7        30.06F
PENSACOLA NAS  PTSUNNY   83  74  74 S7        30.06F
MILTON NAS     PTSUNNY   84  72  67 VRB3      30.07F
CRESTVIEW      SUNNY     86  70  58 SW6       30.08F
DUKE FIELD     MOSUNNY   85  75  71 S5        30.07F
VALPARAISO     MOSUNNY   85  74  69 S8        30.07S
MARY ESTHER    SUNNY     85  70  60 S7        30.06F
PANAMA CITY    FAIR      86  73  65 SE8       30.07S
TYNDALL AFB    MOSUNNY   85  76  74 S7        30.09R
APALACHICOLA   MOSUNNY   87  75  67 S8        30.08R HX  96

STATION/POSITION SKY/WX   TEMP    WIND        PRES    WAVE   SWELL
                          AIR SEA DIR/SP/G            HT/PER HT/PER
                          (F)     (DEG/KT/KT) (MB)    (FT/S) (FT/S)
30.1N   87.6W              82 83  100/  6/  8 1018.1F   1/ 4
29.2N   88.2W              82 84  200/ 12/ 14 1018.5R
28.8N   86.0W              81 84  190/  6/  8 1018.6S   1
PANAMA CITY BEAC           81 83  150/  8/  9 1018.6R
CAPE SAN BLAS    NOT AVBL
TOWER C                    82     170/  5/  6 1018.5S
28.5N   84.5W              83 86  190/  4/  4 1018.8R   1/ 7

$$
FLZ011-016>038-118-127-128-134-139-239-231700-
NORTH FLORIDA

CITY           SKY/WX    TMP DP  RH WIND       PRES   REMARKS
MARIANNA       SUNNY     86  72  62 CALM      30.07F
TALLAHASSEE    MOSUNNY   89  68  49 VRB3      30.08S
PERRY          SUNNY     86  70  58 SW6       30.09S
CROSS CITY       N/A     88  72  58 CALM      30.08F
GAINESVILLE    MOSUNNY   87  72  60 VRB3      30.09S
MAYPORT NAS    MOSUNNY   87  76  69 E7        30.08S HX  97
JACKSONVILLE   MOSUNNY   87  74  64 W5        30.07F HX  95
JAX NAS        MOSUNNY   88  75  65 E7        30.09S HX  97
JAX CRAIG      MOSUNNY   87  73  62 MISG      30.08S
JAX CECIL      PTSUNNY   86  73  66 N3        30.08F
FERNANDINA BEA PTSUNNY   86  75  70 E6        30.07S HX  95
ST AUGUSTINE   PTSUNNY   93  75  55 E8        30.09R HX 104

STATION/POSITION SKY/WX   TEMP    WIND        PRES    WAVE   SWELL
                          AIR SEA DIR/SP/G            HT/PER HT/PER
                          (F)     (DEG/KT/KT) (MB)    (FT/S) (FT/S)
SHELL POINT                84      CALM  /  1   N/A
KEATON BEACH               83     210/  3/  4 1019.0S
CEDAR KEY                  83     160/  3/  3 1019.3S
FERNANDINA                 85 84   10/  4/  5 1018.1S
30.7N   81.3W                 87                N/A     2/ 8
MAYPORT                    83 85   70/  6/  8   N/A
31.4N   80.9W              83 85  350/  2/  4 1018.8F   2/ 7   2/ 7
ST AUGUSTINE               82      90/  4/  5 1019.6S

$$
FLZ040-043>046-052-053-057-058-063-144-231700-
INTERIOR CENTRAL FLORIDA

CITY           SKY/WX    TMP DP  RH WIND       PRES   REMARKS
OCALA          MOSUNNY   88  68  51 CALM      30.10S
LEESBURG       MOSUNNY   87  75  67 VRB3      30.10F HX  96
SANFORD        SUNNY     88  74  63 SW3       30.09S HX  96
ORLANDO EXEC   SUNNY     87  75  67 W3        30.09S HX  96
ORLANDO INTL   MOSUNNY   87  74  64 CALM      30.09S HX  95
KISSIMMEE      MOSUNNY   88  77  70 CALM      30.10S HX 100
WINTER HAVEN   MOSUNNY   87  74  64 CALM      30.11S HX  95
LAKELAND       MOSUNNY   88  70  55 W5        30.10S
OKEECHOBEE     MOSUNNY   86  73  66 MISG      30.09S

$$
FLZ041-047-054-059-064-141-147-231700-
EAST CENTRAL FLORIDA

CITY           SKY/WX    TMP DP  RH WIND       PRES   REMARKS
ORMOND BEACH   MOSUNNY   86  73  66 W6        30.09F
DAYTONA BEACH  PTSUNNY   88  73  61 W7        30.09S HX  95
DELAND         SUNNY     86  72  62 CALM      30.10S
NEW SMYRNA BEA MOSUNNY   88  75  66 NE5       30.10R HX  97
JFK SPACE CTR  MOSUNNY   85  77  76 W6        30.09S HX  95
TITUSVILLE     MOSUNNY   84  75  74 SW6       30.09S
CAPE CANAVERAL MOSUNNY   85  74  68 W3        30.08S
PATRICK AFB    MOSUNNY   86  74  68 S3        30.09S
MELBOURNE      MOSUNNY   86  74  67 SW3       30.08S
VERO BEACH     PTSUNNY   84  77  79 S7        30.09S
FT PIERCE      PTSUNNY   86  74  67 SW3       30.09S
STUART         PTSUNNY   84  75  74 S8        30.10F

STATION/POSITION SKY/WX   TEMP    WIND        PRES    WAVE   SWELL
                          AIR SEA DIR/SP/G            HT/PER HT/PER
                          (F)     (DEG/KT/KT) (MB)    (FT/S) (FT/S)
28.5N   80.2W              81 83  220/  6/  8 1019.2F
28.9N   78.5W              83 83  180/ 14/ 16 1019.9S   4/ 7   2/ 7
TRIDENT PIER               86 87  280/  4/  7 1018.4S
28.4N   80.5W                 85                N/A     2/ 7
27.6N   80.2W                 84                N/A     2/ 7

$$
FLZ050-056-061-142-242-148-248-149-249-151-251-155-255-
160-260-231700-
WEST CENTRAL FLORIDA

CITY           SKY/WX    TMP DP  RH WIND       PRES   REMARKS
CRYSTAL RIVER  PTSUNNY   86  72  62 CALM      30.08F
INVERNESS      FAIR      88  70  55 CALM      30.09S
BROOKSVILLE    MOSUNNY   89  71  55 CALM      30.09S HX  95
ZEPHYRHILLS    PTSUNNY   86  70  58 SW5       30.10S
CLEARWATER     HVY RAIN  85  76  74 E7        30.09R
TAMPA INTL     MOSUNNY   86  72  62 SW6       30.09F
TAMPA EXEC     MOSUNNY   90  72  55 CALM      30.09S HX  96
PLANT CITY     MOSUNNY   90  72  55 W3        30.11S HX  96
MACDILL AFB    SUNNY     89  78  70 SW5       30.09S HX 103
ST PETERSBURG  PTSUNNY   87  75  67 S7        30.07S HX  96
SARASOTA       MOSUNNY   88  73  62 W6        30.11R HX  96
VENICE         FAIR      86  75  70 SW8       30.09S HX  95

STATION/POSITION SKY/WX   TEMP    WIND        PRES    WAVE   SWELL
                          AIR SEA DIR/SP/G            HT/PER HT/PER
                          (F)     (DEG/KT/KT) (MB)    (FT/S) (FT/S)
CEDAR KEY                  83     160/  3/  3 1019.3S
28.5N   84.5W              83 86  190/  4/  4 1018.8R   1/ 7
27.3N   84.3W                 88                N/A     1/ 5
CLEARWATER BEACH           85 88  240/  6/  8 1018.5R
MIDDLE TAMPA BAY           84     290/  3/  5 1019.3R
VENICE                     84 88  230/  4/  5 1018.4F

$$
FLZ066-069-070-075>078-162-262-165-265-231700-
SOUTHWEST FLORIDA AND KEYS

CITY           SKY/WX    TMP DP  RH WIND       PRES   REMARKS
PUNTA GORDA    MOSUNNY   88  73  61 CALM      30.10S HX  95
FT MYERS       SUNNY     88  73  61 S6        30.07F HX  95
SOUTHWEST INTL MOSUNNY   86  74  67 MISG      30.08S
NAPLES         SUNNY     88  76  67 SW8       30.07F HX  99
MARATHON       PTSUNNY   88  78  72 VRB6      30.08S HX 101
KEY WEST NAS   MOSUNNY   89  77  67 SW6       30.08S HX 101
KEY WEST INTL  CLOUDY    88  77  69 VRB5      30.08S HX 100

STATION/POSITION SKY/WX   TEMP    WIND        PRES    WAVE   SWELL
                          AIR SEA DIR/SP/G            HT/PER HT/PER
                          (F)     (DEG/KT/KT) (MB)    (FT/S) (FT/S)
VENICE                     84 88  230/  4/  5 1018.4F
NAPLES                     88 92  270/  2/  3 1019.1S
DRY TORTUGAS               85     120/  5/  5 1018.7R
NW FL BAY                  86     160/  6/  7 1018.8R
SAND KEY                   84     110/  4/  6 1018.8R
SOMBRERO KEY               82     160/ 11/ 13 1019.2R
LONG KEY                   85 87  160/ 10/ 12 1019.5R
MOLASSES REEF              85 86  160/ 13/ 14 1018.9R

$$
FLZ067-068-071>074-168-172>174-231700-
SOUTHEAST FLORIDA

CITY           SKY/WX    TMP DP  RH WIND       PRES   REMARKS
W PALM BEACH   CLOUDY    84  77  79 S5        30.09S THUNDER
FT LAUDER-EXEC PTSUNNY   83  80  91 W3        30.09S HX  95
FT LAUDERDALE  LGT RAIN  80  77  90 CALM      30.09S
POMPANO BEACH    N/A    N/A N/A N/A MISG      30.10R
PEMBROKE PINES HVY RAIN  80  77  90 SW10      30.11S FOG
OPA LOCKA      RAIN      82  77  84 SW6       30.11R
MIAMI          HVY RAIN  79  74  84 CALM      30.10S VSB 1
WEST KENDALL   PTSUNNY   84  77  79 CALM      30.09S
HOMESTEAD      MOSUNNY   87  76  70 S7        30.08F HX  96

STATION/POSITION SKY/WX   TEMP    WIND        PRES    WAVE   SWELL
                          AIR SEA DIR/SP/G            HT/PER HT/PER
                          (F)     (DEG/KT/KT) (MB)    (FT/S) (FT/S)
PORT EVERGLADES            83     160/  6/  9 1019.0
VIRGINIA KEY               86 86  160/ 11/ 14   N/A
LAKE WORTH                 83 84              1019.0R
FOWEY ROCKS                86 86  150/ 16/ 18 1019.1R
SETTLEMENT POINT           84     170/ 13/ 16 1019.7F

$$




USA.gov is the U.S. government's official web portal to all federal, state and local government web resources and services.